| time (UTC) | temp C | wind direction | speed KPH | gust KPH | rain 1hr cm | rain 24hr cm | rain mn cm | humidity % | barometer mb |
| 20260507005152 | 8 | 315 | 0.0 | 0.0 | 0.00 | 0.10 | 0.00 | 81 | 5008.6 |
| 20260507005148 | 8 | 315 | 0.0 | 0.0 | 0.00 | 0.10 | 0.00 | 81 | 5008.6 |
| 20260507004648 | 8 | 315 | 0.0 | 0.0 | 0.00 | 0.10 | 0.00 | 81 | 5008.6 |
| 20260507004148 | 8 | 292 | 0.0 | 0.0 | 0.00 | 0.10 | 0.00 | 81 | 5008.7 |
| 20260507003653 | 8 | 315 | 0.0 | 0.0 | 0.00 | 0.10 | 0.00 | 81 | 5008.6 |
| 20260507003648 | 8 | 315 | 0.0 | 0.0 | 0.00 | 0.10 | 0.00 | 81 | 5008.6 |
| 20260507003148 | 8 | 292 | 0.0 | 0.0 | 0.00 | 0.10 | 0.00 | 81 | 5008.5 |
| 20260507002648 | 8 | 315 | 0.0 | 0.0 | 0.00 | 0.10 | 0.00 | 81 | 5008.4 |
| 20260507002148 | 8 | 315 | 0.0 | 0.0 | 0.00 | 0.10 | 0.00 | 81 | 5008.4 |
| 20260507001648 | 8 | 315 | 0.0 | 0.0 | 0.00 | 0.10 | 0.00 | 81 | 5008.5 |
| 20260507001148 | 8 | 292 | 0.0 | 0.0 | 0.00 | 0.10 | 0.00 | 81 | 5008.4 |
| 20260507000648 | 8 | 337 | 0.0 | 0.0 | 0.00 | 0.10 | 0.00 | 81 | 5008.3 |
| 20260507000148 | 8 | 292 | 0.0 | 0.0 | 0.00 | 0.10 | 0.00 | 81 | 5008.2 |
| 20260506235648 | 8 | 315 | 0.0 | 0.0 | 0.00 | 0.10 | 0.00 | 81 | 5008.2 |
| 20260506235148 | 8 | 337 | 0.0 | 0.0 | 0.00 | 0.10 | 0.00 | 81 | 5008.4 |
| 20260506234648 | 8 | 315 | 0.0 | 0.0 | 0.00 | 0.10 | 0.00 | 81 | 5008.2 |
| 20260506234148 | 8 | 315 | 0.0 | 0.0 | 0.00 | 0.10 | 0.00 | 81 | 5008.3 |
| 20260506233654 | 8 | 315 | 0.0 | 0.0 | 0.00 | 0.10 | 0.00 | 81 | 5008.2 |
| 20260506233648 | 8 | 315 | 0.0 | 0.0 | 0.00 | 0.10 | 0.00 | 81 | 5008.2 |
| 20260506233148 | 8 | 315 | 0.0 | 0.0 | 0.00 | 0.10 | 0.00 | 81 | 5008.1 |
| 20260506232648 | 8 | 337 | 0.0 | 0.0 | 0.00 | 0.10 | 0.00 | 81 | 5008.2 |
| 20260506232148 | 8 | 315 | 0.0 | 0.0 | 0.00 | 0.10 | 0.00 | 81 | 5008.3 |
| 20260506231648 | 8 | 315 | 0.0 | 0.0 | 0.00 | 0.10 | 0.00 | 81 | 5008.3 |
| 20260506231148 | 8 | 315 | 0.0 | 0.0 | 0.00 | 0.10 | 0.00 | 81 | 5008.2 |
| 20260506230648 | 8 | 337 | 0.0 | 0.0 | 0.00 | 0.10 | 0.00 | 80 | 5008.3 |
| 20260506230148 | 8 | 337 | 0.0 | 0.0 | 0.00 | 0.10 | 0.00 | 80 | 5008.2 |
| 20260506225648 | 8 | 337 | 0.0 | 0.0 | 0.00 | 0.10 | 0.00 | 80 | 5008.3 |
| 20260506225153 | 8 | 315 | 0.0 | 0.0 | 0.00 | 0.10 | 0.00 | 80 | 5008.2 |
| 20260506225149 | 8 | 315 | 0.0 | 0.0 | 0.00 | 0.10 | 0.00 | 80 | 5008.2 |
| 20260506224648 | 8 | 337 | 0.0 | 0.0 | 0.00 | 0.10 | 0.00 | 79 | 5008.1 |
| 20260506224148 | 9 | 337 | 0.0 | 0.0 | 0.00 | 0.10 | 0.00 | 79 | 5008.1 |
| 20260506223649 | 9 | 337 | 0.0 | 0.0 | 0.00 | 0.10 | 0.00 | 79 | 5008.1 |
| 20260506223149 | 9 | 337 | 0.0 | 0.0 | 0.00 | 0.10 | 0.00 | 79 | 5008.1 |
| 20260506222649 | 9 | 337 | 0.0 | 0.0 | 0.00 | 0.10 | 0.00 | 79 | 5008.1 |
| 20260506222149 | 9 | 337 | 0.0 | 0.0 | 0.00 | 0.10 | 0.00 | 79 | 5008.0 |
| 20260506221649 | 9 | 0 | 0.0 | 0.0 | 0.00 | 0.10 | 0.00 | 79 | 5007.9 |
| 20260506221149 | 9 | 337 | 0.0 | 0.0 | 0.00 | 0.10 | 0.00 | 79 | 5007.8 |
| 20260506220649 | 9 | 337 | 0.0 | 0.0 | 0.00 | 0.10 | 0.00 | 79 | 5007.7 |
| 20260506220149 | 9 | 337 | 0.0 | 0.0 | 0.00 | 0.10 | 0.00 | 78 | 5007.8 |
| 20260506215649 | 9 | 337 | 0.0 | 0.0 | 0.00 | 0.10 | 0.00 | 78 | 5007.7 |
| 20260506215149 | 9 | 315 | 0.0 | 0.0 | 0.00 | 0.10 | 0.00 | 78 | 5007.7 |
| 20260506214649 | 9 | 315 | 0.0 | 0.0 | 0.00 | 0.10 | 0.00 | 78 | 5007.5 |
| 20260506214149 | 9 | 315 | 0.0 | 0.0 | 0.00 | 0.10 | 0.00 | 78 | 5007.5 |
| 20260506213649 | 9 | 337 | 0.0 | 0.0 | 0.00 | 0.10 | 0.00 | 78 | 5007.5 |
| 20260506213149 | 9 | 337 | 0.0 | 0.0 | 0.00 | 0.10 | 0.00 | 78 | 5007.6 |
| 20260506212649 | 9 | 337 | 0.0 | 0.0 | 0.00 | 0.10 | 0.00 | 78 | 5007.6 |
| 20260506212149 | 9 | 337 | 0.0 | 0.0 | 0.00 | 0.10 | 0.00 | 78 | 5007.4 |
| 20260506211649 | 9 | 337 | 0.0 | 0.0 | 0.00 | 0.10 | 0.00 | 78 | 5007.2 |
| 20260506211149 | 9 | 315 | 0.0 | 0.0 | 0.00 | 0.10 | 0.00 | 77 | 5007.3 |
| 20260506210649 | 9 | 315 | 0.0 | 0.0 | 0.00 | 0.10 | 0.00 | 77 | 5007.3 |
| 20260506210149 | 9 | 315 | 0.0 | 0.0 | 0.00 | 0.10 | 0.00 | 77 | 5007.3 |
| 20260506205649 | 9 | 337 | 0.0 | 0.0 | 0.00 | 0.10 | 0.00 | 77 | 5007.2 |
| 20260506205149 | 9 | 292 | 0.0 | 0.0 | 0.00 | 0.10 | 0.00 | 77 | 5007.2 |
| 20260506204649 | 10 | 337 | 0.0 | 0.0 | 0.00 | 0.10 | 0.00 | 76 | 5007.1 |
| 20260506204149 | 10 | 337 | 0.0 | 0.0 | 0.00 | 0.10 | 0.00 | 76 | 5007.1 |
| 20260506203649 | 10 | 337 | 0.0 | 0.0 | 0.00 | 0.10 | 0.00 | 76 | 5007.1 |
| 20260506203149 | 10 | 337 | 0.0 | 0.0 | 0.00 | 0.10 | 0.00 | 76 | 5007.1 |
| 20260506202649 | 10 | 0 | 0.0 | 0.0 | 0.00 | 0.10 | 0.00 | 76 | 5007.0 |
| 20260506202149 | 10 | 337 | 0.0 | 0.0 | 0.00 | 0.10 | 0.00 | 76 | 5007.0 |
| 20260506201649 | 10 | 0 | 0.0 | 0.0 | 0.00 | 0.10 | 0.00 | 76 | 5006.9 |
| 20260506201149 | 10 | 315 | 0.0 | 0.0 | 0.00 | 0.10 | 0.00 | 77 | 5007.0 |
| 20260506200659 | 10 | 337 | 0.0 | 0.0 | 0.00 | 0.10 | 0.00 | 77 | 5006.9 |
| 20260506200649 | 10 | 337 | 0.0 | 0.0 | 0.00 | 0.10 | 0.00 | 77 | 5006.9 |
| 20260506200149 | 10 | 337 | 0.0 | 0.0 | 0.00 | 0.10 | 0.00 | 77 | 5006.8 |
| 20260506195649 | 10 | 337 | 0.0 | 0.0 | 0.00 | 0.10 | 0.00 | 77 | 5006.7 |
| 20260506195154 | 10 | 337 | 0.0 | 0.0 | 0.00 | 0.10 | 0.00 | 78 | 5006.7 |
| 20260506195149 | 10 | 337 | 0.0 | 0.0 | 0.00 | 0.10 | 0.00 | 78 | 5006.7 |
| 20260506194649 | 10 | 337 | 0.0 | 0.0 | 0.00 | 0.10 | 0.00 | 78 | 5006.6 |
| 20260506194149 | 10 | 0 | 0.0 | 0.0 | 0.00 | 0.10 | 0.00 | 77 | 5006.6 |
| 20260506193649 | 10 | 0 | 0.0 | 0.0 | 0.00 | 0.10 | 0.00 | 77 | 5006.7 |
| 20260506193149 | 10 | 337 | 0.0 | 0.0 | 0.00 | 0.10 | 0.00 | 76 | 5006.6 |
| 20260506192649 | 10 | 337 | 0.0 | 0.0 | 0.00 | 0.10 | 0.00 | 76 | 5006.5 |
| 20260506192149 | 10 | 337 | 0.0 | 0.0 | 0.00 | 0.10 | 0.00 | 75 | 5006.5 |
| 20260506191649 | 10 | 337 | 0.0 | 0.0 | 0.00 | 0.10 | 0.00 | 75 | 5006.3 |
| 20260506191149 | 10 | 337 | 0.0 | 0.0 | 0.00 | 0.10 | 0.00 | 75 | 5006.2 |
| 20260506190654 | 10 | 315 | 0.0 | 0.0 | 0.00 | 0.10 | 0.00 | 75 | 5006.2 |
| 20260506190649 | 10 | 315 | 0.0 | 0.0 | 0.00 | 0.10 | 0.00 | 75 | 5006.2 |
| 20260506190149 | 10 | 315 | 0.0 | 0.0 | 0.00 | 0.10 | 0.00 | 75 | 5006.1 |
| 20260506185649 | 11 | 315 | 0.0 | 0.0 | 0.00 | 0.20 | 0.00 | 75 | 5006.0 |
| 20260506185153 | 11 | 337 | 0.0 | 0.0 | 0.00 | 0.20 | 0.00 | 75 | 5005.9 |
| 20260506185149 | 11 | 337 | 0.0 | 0.0 | 0.00 | 0.20 | 0.00 | 75 | 5005.9 |
| 20260506184649 | 11 | 315 | 0.0 | 0.0 | 0.00 | 0.20 | 0.00 | 75 | 5005.9 |
| 20260506184149 | 11 | 315 | 0.0 | 0.0 | 0.00 | 0.20 | 0.00 | 75 | 5005.8 |
| 20260506183654 | 11 | 337 | 0.0 | 0.0 | 0.00 | 0.20 | 0.00 | 75 | 5005.7 |
| 20260506183649 | 11 | 337 | 0.0 | 0.0 | 0.00 | 0.20 | 0.00 | 75 | 5005.7 |
| 20260506183149 | 11 | 337 | 0.0 | 0.0 | 0.00 | 0.20 | 0.00 | 75 | 5005.7 |
| 20260506182649 | 11 | 0 | 0.0 | 0.0 | 0.00 | 0.20 | 0.00 | 74 | 5005.9 |
| 20260506182153 | 11 | 0 | 0.0 | 0.0 | 0.00 | 0.20 | 0.00 | 74 | 5005.6 |
| 20260506182149 | 11 | 0 | 0.0 | 0.0 | 0.00 | 0.20 | 0.00 | 74 | 5005.6 |
| 20260506181649 | 11 | 337 | 0.0 | 0.0 | 0.00 | 0.20 | 0.00 | 73 | 5005.5 |
| 20260506181149 | 11 | 337 | 0.0 | 0.0 | 0.00 | 0.20 | 0.00 | 73 | 5005.4 |
| 20260506180654 | 11 | 337 | 0.0 | 0.0 | 0.00 | 0.20 | 0.00 | 72 | 5005.3 |
| 20260506180649 | 11 | 337 | 0.0 | 0.0 | 0.00 | 0.20 | 0.00 | 72 | 5005.3 |
| 20260506180149 | 11 | 337 | 0.0 | 0.0 | 0.00 | 0.20 | 0.00 | 71 | 5005.3 |
| 20260506175649 | 11 | 0 | 0.0 | 0.0 | 0.00 | 0.36 | 0.00 | 71 | 5005.2 |
| 20260506175149 | 12 | 337 | 0.0 | 0.0 | 0.00 | 0.36 | 0.00 | 71 | 5005.1 |
| 20260506174649 | 12 | 337 | 0.0 | 0.0 | 0.00 | 0.36 | 0.00 | 71 | 5005.1 |
| 20260506174149 | 12 | 337 | 0.0 | 0.0 | 0.00 | 0.36 | 0.00 | 72 | 5005.1 |
| 20260506173649 | 12 | 0 | 0.0 | 0.0 | 0.00 | 0.36 | 0.00 | 72 | 5005.1 |
| 20260506173149 | 12 | 337 | 0.0 | 0.0 | 0.00 | 0.36 | 0.00 | 72 | 5005.1 |
| 20260506172649 | 12 | 0 | 0.0 | 0.0 | 0.00 | 0.36 | 0.00 | 71 | 5005.0 |
| 20260506172149 | 12 | 0 | 0.0 | 0.0 | 0.00 | 0.36 | 0.00 | 69 | 5005.0 |
| 20260506171649 | 13 | 337 | 0.0 | 0.0 | 0.00 | 0.36 | 0.00 | 69 | 5004.9 |
| 20260506171149 | 13 | 0 | 0.0 | 0.0 | 0.00 | 0.36 | 0.00 | 68 | 5004.9 |
| 20260506170649 | 13 | 315 | 0.0 | 0.0 | 0.00 | 0.36 | 0.00 | 68 | 5004.9 |
| 20260506170149 | 13 | 337 | 0.0 | 0.0 | 0.00 | 0.36 | 0.00 | 69 | 5004.9 |
| 20260506165649 | 13 | 0 | 0.0 | 0.0 | 0.00 | 0.36 | 0.00 | 71 | 5004.9 |
| 20260506165154 | 13 | 337 | 0.0 | 0.0 | 0.00 | 0.36 | 0.00 | 72 | 5004.8 |
| 20260506165149 | 13 | 337 | 0.0 | 0.0 | 0.00 | 0.36 | 0.00 | 72 | 5004.8 |
| 20260506164649 | 12 | 0 | 0.0 | 0.0 | 0.00 | 0.36 | 0.00 | 72 | 5004.8 |
| 20260506164149 | 12 | 0 | 0.0 | 0.0 | 0.00 | 0.36 | 0.00 | 73 | 5004.7 |
| 20260506163649 | 12 | 337 | 0.0 | 0.0 | 0.00 | 0.36 | 0.00 | 74 | 5004.7 |
| 20260506163149 | 12 | 0 | 0.0 | 0.0 | 0.00 | 0.36 | 0.00 | 74 | 5004.7 |
| 20260506162649 | 12 | 337 | 0.0 | 0.0 | 0.00 | 0.36 | 0.00 | 74 | 5004.8 |
| 20260506162149 | 12 | 337 | 0.0 | 0.0 | 0.00 | 0.36 | 0.00 | 75 | 5004.8 |
| 20260506161649 | 12 | 0 | 0.0 | 0.0 | 0.00 | 0.36 | 0.00 | 75 | 5004.8 |
| 20260506161149 | 12 | 0 | 0.0 | 0.0 | 0.00 | 0.36 | 0.00 | 76 | 5004.9 |
| 20260506160649 | 11 | 0 | 0.0 | 0.0 | 0.00 | 0.36 | 0.00 | 76 | 5004.9 |
| 20260506160149 | 11 | 0 | 0.0 | 0.0 | 0.00 | 0.36 | 0.00 | 76 | 5004.9 |
| 20260506155649 | 11 | 337 | 0.0 | 0.0 | 0.00 | 0.36 | 0.00 | 76 | 5004.9 |
| 20260506155154 | 12 | 315 | 0.0 | 0.0 | 0.00 | 0.36 | 0.00 | 75 | 5004.8 |
| 20260506155149 | 12 | 315 | 0.0 | 0.0 | 0.00 | 0.36 | 0.00 | 75 | 5004.8 |
| 20260506154649 | 12 | 22 | 0.0 | 0.0 | 0.00 | 0.36 | 0.00 | 75 | 5004.9 |
| 20260506154149 | 12 | 0 | 0.0 | 0.0 | 0.00 | 0.36 | 0.00 | 75 | 5004.8 |
| 20260506153649 | 12 | 337 | 0.0 | 0.0 | 0.00 | 0.36 | 0.00 | 74 | 5004.9 |
| 20260506153149 | 12 | 0 | 0.0 | 0.0 | 0.00 | 0.36 | 0.00 | 75 | 5004.9 |
| 20260506152649 | 12 | 0 | 0.0 | 0.0 | 0.00 | 0.36 | 0.00 | 75 | 5004.8 |
| 20260506152149 | 12 | 0 | 0.0 | 0.0 | 0.00 | 0.36 | 0.00 | 75 | 5004.8 |
| 20260506151649 | 12 | 337 | 0.0 | 0.0 | 0.00 | 0.36 | 0.00 | 75 | 5004.7 |
| 20260506151149 | 12 | 337 | 0.0 | 0.0 | 0.00 | 0.36 | 0.00 | 76 | 5004.6 |
| 20260506150654 | 12 | 315 | 0.0 | 0.0 | 0.00 | 0.36 | 0.00 | 77 | 5004.6 |
| 20260506150649 | 12 | 315 | 0.0 | 0.0 | 0.00 | 0.36 | 0.00 | 77 | 5004.6 |
| 20260506150149 | 12 | 337 | 0.0 | 0.0 | 0.00 | 0.36 | 0.00 | 76 | 5004.5 |
| 20260506145649 | 12 | 337 | 0.0 | 0.0 | 0.00 | 0.36 | 0.00 | 75 | 5004.5 |
| 20260506145149 | 12 | 337 | 0.0 | 0.0 | 0.00 | 0.36 | 0.00 | 75 | 5004.5 |
| 20260506144649 | 12 | 315 | 0.0 | 0.0 | 0.00 | 0.36 | 0.00 | 76 | 5004.5 |
| 20260506144149 | 12 | 337 | 0.0 | 0.0 | 0.00 | 0.36 | 0.00 | 77 | 5004.5 |
| 20260506143649 | 12 | 337 | 0.0 | 0.0 | 0.00 | 0.36 | 0.00 | 77 | 5004.4 |
| 20260506143149 | 12 | 337 | 0.0 | 0.0 | 0.00 | 0.36 | 0.00 | 77 | 5004.4 |
| 20260506142649 | 12 | 315 | 0.0 | 0.0 | 0.00 | 0.36 | 0.00 | 76 | 5004.3 |
| 20260506142149 | 12 | 337 | 0.0 | 0.0 | 0.00 | 0.36 | 0.00 | 76 | 5004.3 |
| 20260506141649 | 12 | 225 | 0.0 | 0.0 | 0.00 | 0.36 | 0.00 | 76 | 5004.3 |
| 20260506141149 | 12 | 292 | 0.0 | 0.0 | 0.00 | 0.36 | 0.00 | 75 | 5004.3 |
| 20260506140649 | 12 | 22 | 0.0 | 0.0 | 0.00 | 0.36 | 0.00 | 75 | 5004.2 |
| 20260506140149 | 12 | 337 | 0.0 | 0.0 | 0.00 | 0.36 | 0.00 | 73 | 5004.2 |
| 20260506135649 | 13 | 337 | 0.0 | 0.0 | 0.00 | 0.41 | 0.00 | 74 | 5004.0 |
| 20260506135149 | 13 | 337 | 0.0 | 0.0 | 0.00 | 0.41 | 0.00 | 74 | 5004.0 |
| 20260506134649 | 13 | 337 | 0.0 | 0.0 | 0.00 | 0.41 | 0.00 | 74 | 5004.0 |
| 20260506134149 | 13 | 337 | 0.0 | 0.0 | 0.00 | 0.41 | 0.00 | 75 | 5004.1 |
| 20260506133649 | 13 | 337 | 0.0 | 0.0 | 0.00 | 0.41 | 0.00 | 74 | 5004.1 |
| 20260506133149 | 13 | 337 | 0.0 | 0.0 | 0.00 | 0.41 | 0.00 | 74 | 5004.2 |
| 20260506132649 | 13 | 337 | 0.0 | 0.0 | 0.00 | 0.41 | 0.00 | 74 | 5004.2 |
| 20260506132149 | 13 | 315 | 0.0 | 0.0 | 0.00 | 0.41 | 0.00 | 75 | 5004.3 |
| 20260506131649 | 13 | 315 | 0.0 | 0.0 | 0.00 | 0.41 | 0.00 | 74 | 5004.2 |
| 20260506131149 | 13 | 45 | 0.0 | 0.0 | 0.00 | 0.41 | 0.00 | 74 | 5004.2 |
| 20260506130649 | 13 | 337 | 0.0 | 0.0 | 0.00 | 0.41 | 0.00 | 73 | 5004.1 |
| 20260506130149 | 13 | 337 | 0.0 | 0.0 | 0.00 | 0.41 | 0.00 | 74 | 5004.1 |
| 20260506125649 | 13 | 292 | 0.0 | 0.0 | 0.00 | 0.46 | 0.00 | 74 | 5004.1 |
| 20260506125149 | 13 | 315 | 0.0 | 0.0 | 0.00 | 0.46 | 0.00 | 73 | 5003.9 |
| 20260506124650 | 13 | 315 | 0.0 | 0.0 | 0.00 | 0.46 | 0.00 | 73 | 5003.9 |
| 20260506124150 | 13 | 337 | 0.0 | 0.0 | 0.00 | 0.46 | 0.00 | 73 | 5003.9 |
| 20260506123650 | 14 | 315 | 0.0 | 0.0 | 0.00 | 0.46 | 0.00 | 72 | 5003.9 |
| 20260506123150 | 14 | 337 | 0.0 | 0.0 | 0.00 | 0.46 | 0.00 | 73 | 5003.9 |
| 20260506122650 | 14 | 22 | 0.0 | 0.0 | 0.00 | 0.46 | 0.00 | 73 | 5003.8 |
| 20260506122150 | 14 | 315 | 0.0 | 0.0 | 0.00 | 0.46 | 0.00 | 73 | 5003.8 |
| 20260506121650 | 14 | 67 | 0.0 | 0.0 | 0.00 | 0.46 | 0.00 | 74 | 5003.8 |
| 20260506121150 | 14 | 315 | 0.0 | 0.0 | 0.00 | 0.46 | 0.00 | 74 | 5003.7 |
| 20260506120653 | 14 | 22 | 0.0 | 0.0 | 0.00 | 0.46 | 0.00 | 75 | 5003.5 |
| 20260506120650 | 14 | 22 | 0.0 | 0.0 | 0.00 | 0.46 | 0.00 | 75 | 5003.5 |
| 20260506120150 | 14 | 292 | 0.0 | 0.0 | 0.00 | 0.46 | 0.00 | 76 | 5003.6 |
| 20260506115650 | 13 | 315 | 0.0 | 0.0 | 0.00 | 0.51 | 0.00 | 77 | 5003.6 |
| 20260506115150 | 13 | 315 | 0.0 | 0.0 | 0.00 | 0.51 | 0.00 | 78 | 5003.6 |
| 20260506114650 | 13 | 315 | 0.0 | 0.0 | 0.00 | 0.51 | 0.00 | 78 | 5003.7 |
| 20260506114150 | 12 | 292 | 0.0 | 0.0 | 0.00 | 0.51 | 0.00 | 79 | 5003.8 |
| 20260506113650 | 12 | 315 | 0.0 | 0.0 | 0.00 | 0.51 | 0.00 | 79 | 5003.7 |
| 20260506113150 | 13 | 22 | 0.0 | 0.0 | 0.00 | 0.51 | 0.00 | 79 | 5003.7 |
| 20260506112650 | 13 | 292 | 0.0 | 0.0 | 0.00 | 0.51 | 0.00 | 79 | 5003.7 |
| 20260506112150 | 13 | 337 | 0.0 | 0.0 | 0.00 | 0.51 | 0.00 | 79 | 5003.5 |
| 20260506111650 | 13 | 315 | 0.0 | 0.0 | 0.00 | 0.51 | 0.00 | 79 | 5003.4 |
| 20260506111150 | 13 | 315 | 0.0 | 0.0 | 0.00 | 0.51 | 0.00 | 79 | 5003.4 |
| 20260506110650 | 13 | 22 | 0.0 | 0.0 | 0.00 | 0.51 | 0.00 | 78 | 5003.3 |
| 20260506110150 | 13 | 0 | 0.0 | 0.0 | 0.00 | 0.51 | 0.00 | 79 | 5003.3 |
| 20260506105650 | 13 | 337 | 0.0 | 0.0 | 0.00 | 0.56 | 0.00 | 79 | 5003.3 |
| 20260506105150 | 14 | 337 | 0.0 | 0.0 | 0.00 | 0.56 | 0.00 | 78 | 5003.3 |
| 20260506104650 | 14 | 337 | 0.0 | 0.0 | 0.00 | 0.56 | 0.00 | 77 | 5003.4 |
| 20260506104150 | 15 | 315 | 0.0 | 0.0 | 0.00 | 0.56 | 0.00 | 78 | 5003.4 |
| 20260506103650 | 15 | 270 | 0.0 | 0.0 | 0.00 | 0.56 | 0.00 | 80 | 5003.2 |
| 20260506103150 | 14 | 292 | 0.0 | 0.0 | 0.00 | 0.56 | 0.00 | 79 | 5003.0 |
| 20260506102650 | 14 | 315 | 0.0 | 0.0 | 0.00 | 0.56 | 0.00 | 79 | 5003.0 |
| 20260506102150 | 14 | 315 | 0.0 | 0.0 | 0.00 | 0.56 | 0.00 | 79 | 5003.1 |
| 20260506101650 | 15 | 315 | 0.0 | 0.0 | 0.00 | 0.56 | 0.00 | 79 | 5003.0 |
| 20260506101150 | 15 | 315 | 0.0 | 0.0 | 0.00 | 0.56 | 0.00 | 80 | 5003.0 |
| 20260506100650 | 15 | 337 | 0.0 | 0.0 | 0.05 | 0.56 | 0.00 | 81 | 5002.8 |
| 20260506100150 | 14 | 315 | 0.0 | 0.0 | 0.05 | 0.56 | 0.00 | 83 | 5003.0 |
| 20260506095650 | 13 | 292 | 0.0 | 0.0 | 0.05 | 0.56 | 0.00 | 84 | 5002.9 |
| 20260506095150 | 13 | 315 | 0.0 | 0.0 | 0.05 | 0.56 | 0.00 | 86 | 5002.9 |
| 20260506094650 | 13 | 315 | 0.0 | 0.0 | 0.05 | 0.56 | 0.00 | 88 | 5002.8 |
| 20260506094152 | 12 | 292 | 0.0 | 0.0 | 0.05 | 0.56 | 0.00 | 88 | 5002.8 |
| 20260506093650 | 12 | 315 | 0.0 | 0.0 | 0.05 | 0.56 | 0.00 | 89 | 5002.9 |
| 20260506093150 | 12 | 315 | 0.0 | 0.0 | 0.05 | 0.56 | 0.00 | 89 | 5002.8 |
| 20260506092650 | 12 | 315 | 0.0 | 0.0 | 0.05 | 0.56 | 0.00 | 88 | 5002.8 |
| 20260506092150 | 12 | 315 | 0.0 | 0.0 | 0.05 | 0.56 | 0.00 | 87 | 5002.9 |
| 20260506091650 | 12 | 292 | 0.0 | 0.0 | 0.05 | 0.56 | 0.00 | 86 | 5002.9 |
| 20260506091150 | 12 | 292 | 0.0 | 0.0 | 0.00 | 0.51 | 0.00 | 85 | 5002.9 |
| 20260506090650 | 12 | 292 | 0.0 | 0.0 | 0.00 | 0.51 | 0.00 | 85 | 5002.7 |
| 20260506090150 | 13 | 292 | 0.0 | 0.0 | 0.00 | 0.51 | 0.00 | 83 | 5002.8 |
| 20260506085650 | 14 | 292 | 0.0 | 0.0 | 0.00 | 0.51 | 0.00 | 83 | 5002.7 |
| 20260506085150 | 14 | 180 | 0.0 | 0.0 | 0.00 | 0.51 | 0.00 | 84 | 5002.6 |
| 20260506084650 | 14 | 157 | 0.0 | 0.0 | 0.00 | 0.51 | 0.00 | 84 | 5002.6 |
| 20260506084150 | 14 | 180 | 0.0 | 0.0 | 0.00 | 0.51 | 0.00 | 86 | 5002.5 |
| 20260506083650 | 13 | 135 | 0.0 | 0.0 | 0.00 | 0.51 | 0.00 | 86 | 5002.5 |
| 20260506083150 | 13 | 180 | 0.0 | 0.0 | 0.00 | 0.51 | 0.00 | 85 | 5002.6 |
| 20260506082650 | 13 | 180 | 0.0 | 0.0 | 0.00 | 0.51 | 0.00 | 86 | 5002.6 |
| 20260506082150 | 13 | 180 | 0.0 | 0.0 | 0.00 | 0.51 | 0.00 | 85 | 5002.6 |
| 20260506081650 | 13 | 202 | 0.0 | 0.0 | 0.00 | 0.51 | 0.00 | 86 | 5002.6 |
| 20260506081150 | 13 | 157 | 0.0 | 0.0 | 0.00 | 0.51 | 0.00 | 87 | 5002.4 |
| 20260506080650 | 13 | 157 | 0.0 | 0.0 | 0.00 | 0.51 | 0.00 | 87 | 5002.3 |
| 20260506080150 | 13 | 157 | 0.0 | 0.0 | 0.00 | 0.51 | 0.00 | 88 | 5002.4 |
| 20260506073150 | 11 | 180 | 0.0 | 0.0 | 0.00 | 0.51 | 0.00 | 93 | 5002.5 |
| 20260506072650 | 11 | 202 | 0.0 | 0.0 | 0.00 | 0.51 | 0.00 | 93 | 5002.6 |
| 20260506072157 | 11 | 180 | 0.0 | 0.0 | 0.00 | 0.51 | 0.00 | 93 | 5002.6 |
| 20260506072150 | 11 | 180 | 0.0 | 0.0 | 0.00 | 0.51 | 0.00 | 93 | 5002.6 |
| 20260506071650 | 11 | 180 | 0.0 | 0.0 | 0.00 | 0.51 | 0.00 | 93 | 5002.5 |
| 20260506071150 | 11 | 202 | 0.0 | 0.0 | 0.00 | 0.51 | 0.00 | 93 | 5002.6 |
| 20260506070650 | 11 | 180 | 0.0 | 0.0 | 0.00 | 0.51 | 0.00 | 93 | 5002.6 |
| 20260506070150 | 11 | 202 | 0.0 | 0.0 | 0.00 | 0.51 | 0.00 | 93 | 5002.5 |
| 20260506062150 | 10 | 157 | 0.0 | 0.0 | 0.05 | 0.51 | 0.00 | 92 | 5002.3 |
| 20260506061650 | 10 | 180 | 0.0 | 0.0 | 0.05 | 0.51 | 0.00 | 92 | 5002.2 |
| 20260506061150 | 10 | 135 | 0.0 | 0.0 | 0.05 | 0.51 | 0.00 | 92 | 5002.4 |
| 20260506060650 | 10 | 180 | 0.0 | 0.0 | 0.05 | 0.51 | 0.00 | 92 | 5002.4 |
| 20260506060150 | 10 | 157 | 0.0 | 0.0 | 0.05 | 0.51 | 0.00 | 92 | 5002.4 |
| 20260506051150 | 11 | 180 | 0.0 | 0.0 | 0.00 | 0.46 | 0.00 | 92 | 5002.1 |
| 20260506050650 | 11 | 180 | 0.0 | 0.0 | 0.00 | 0.46 | 0.00 | 92 | 5002.1 |
| 20260506050150 | 11 | 157 | 0.0 | 0.0 | 0.00 | 0.46 | 0.00 | 92 | 5002.1 |
| 20260506044650 | 10 | 180 | 0.0 | 0.0 | 0.00 | 0.46 | 0.00 | 92 | 5002.1 |
| 20260506044151 | 10 | 157 | 0.0 | 0.0 | 0.00 | 0.46 | 0.00 | 93 | 5002.1 |
| 20260506043650 | 10 | 180 | 0.0 | 0.0 | 0.00 | 0.46 | 0.00 | 93 | 5002.1 |
| 20260506043150 | 10 | 180 | 0.0 | 0.0 | 0.00 | 0.46 | 0.00 | 93 | 5002.2 |
| 20260506042650 | 10 | 157 | 0.0 | 0.0 | 0.00 | 0.46 | 0.00 | 93 | 5002.1 |
| 20260506042150 | 10 | 180 | 0.0 | 0.0 | 0.00 | 0.46 | 0.00 | 93 | 5002.2 |
| 20260506041651 | 10 | 157 | 0.0 | 0.0 | 0.00 | 0.46 | 0.00 | 93 | 5002.1 |
| 20260506041151 | 11 | 180 | 0.0 | 0.0 | 0.00 | 0.46 | 0.00 | 93 | 5002.1 |
| 20260506040650 | 10 | 180 | 0.0 | 0.0 | 0.00 | 0.46 | 0.00 | 93 | 5002.2 |
| 20260506040151 | 11 | 180 | 0.0 | 0.0 | 0.00 | 0.46 | 0.00 | 93 | 5002.1 |
| 20260506035650 | 11 | 180 | 0.0 | 0.0 | 0.00 | 0.46 | 0.00 | 93 | 5002.3 |
| 20260506035151 | 11 | 157 | 0.0 | 0.0 | 0.00 | 0.46 | 0.00 | 93 | 5002.3 |
| 20260506034650 | 10 | 180 | 0.0 | 0.0 | 0.00 | 0.46 | 0.00 | 93 | 5002.5 |
| 20260506034150 | 11 | 180 | 0.0 | 0.0 | 0.00 | 0.46 | 0.00 | 93 | 5002.6 |
| 20260506033651 | 11 | 180 | 0.0 | 0.0 | 0.00 | 0.46 | 0.00 | 93 | 5002.6 |
| 20260506033151 | 11 | 202 | 0.0 | 0.0 | 0.00 | 0.46 | 0.00 | 93 | 5002.7 |
| 20260506032651 | 11 | 180 | 0.0 | 0.0 | 0.00 | 0.46 | 0.00 | 93 | 5002.7 |
| 20260506032151 | 11 | 180 | 0.0 | 0.0 | 0.00 | 0.46 | 0.00 | 93 | 5002.8 |
| 20260506031651 | 11 | 180 | 0.0 | 0.0 | 0.00 | 0.46 | 0.00 | 93 | 5002.8 |
| 20260506031151 | 11 | 180 | 0.0 | 0.0 | 0.00 | 0.46 | 0.00 | 93 | 5002.8 |
| 20260506030651 | 11 | 202 | 0.0 | 0.0 | 0.00 | 0.46 | 0.00 | 94 | 5002.7 |
| 20260506030151 | 11 | 180 | 0.0 | 0.0 | 0.00 | 0.46 | 0.00 | 94 | 5002.7 |
| 20260506025651 | 11 | 180 | 0.0 | 0.0 | 0.00 | 0.46 | 0.00 | 94 | 5002.7 |
| 20260506025151 | 11 | 202 | 0.0 | 0.0 | 0.00 | 0.46 | 0.00 | 94 | 5002.8 |
| 20260506024651 | 11 | 157 | 0.0 | 0.0 | 0.00 | 0.46 | 0.00 | 94 | 5002.7 |
| 20260506024151 | 11 | 180 | 0.0 | 0.0 | 0.00 | 0.46 | 0.00 | 94 | 5002.7 |
| 20260506023651 | 11 | 180 | 0.0 | 0.0 | 0.00 | 0.46 | 0.00 | 94 | 5002.6 |
| 20260506023151 | 11 | 180 | 0.0 | 0.0 | 0.00 | 0.46 | 0.00 | 94 | 5002.6 |
| 20260506022651 | 11 | 180 | 0.0 | 0.0 | 0.00 | 0.46 | 0.00 | 94 | 5002.7 |
| 20260506022151 | 11 | 180 | 0.0 | 0.0 | 0.00 | 0.46 | 0.00 | 94 | 5002.6 |
| 20260506021651 | 11 | 157 | 0.0 | 0.0 | 0.00 | 0.46 | 0.00 | 94 | 5002.6 |
| 20260506021151 | 11 | 180 | 0.0 | 0.0 | 0.00 | 0.46 | 0.00 | 94 | 5002.6 |
| 20260506020651 | 11 | 180 | 0.0 | 0.0 | 0.00 | 0.46 | 0.00 | 94 | 5002.5 |
| 20260506020151 | 11 | 180 | 0.0 | 0.0 | 0.00 | 0.46 | 0.00 | 93 | 5002.6 |
| 20260506015651 | 11 | 180 | 0.0 | 0.0 | 0.00 | 0.46 | 0.00 | 93 | 5002.7 |
| 20260506015151 | 10 | 157 | 0.0 | 0.0 | 0.00 | 0.46 | 0.00 | 93 | 5002.8 |
| 20260506014651 | 10 | 180 | 0.0 | 0.0 | 0.00 | 0.46 | 0.00 | 93 | 5002.7 |
| 20260506014151 | 10 | 180 | 0.0 | 0.0 | 0.00 | 0.46 | 0.00 | 93 | 5002.7 |
| 20260506013651 | 10 | 180 | 0.0 | 0.0 | 0.00 | 0.46 | 0.00 | 93 | 5002.7 |
| 20260506013151 | 10 | 180 | 0.0 | 0.0 | 0.00 | 0.46 | 0.00 | 93 | 5002.8 |
| 20260506012651 | 10 | 157 | 0.0 | 0.0 | 0.00 | 0.46 | 0.00 | 93 | 5002.8 |
| 20260506012151 | 10 | 180 | 0.0 | 0.0 | 0.00 | 0.46 | 0.00 | 93 | 5002.8 |
| 20260506011651 | 10 | 180 | 0.0 | 0.0 | 0.00 | 0.46 | 0.00 | 93 | 5002.8 |
| 20260506011151 | 10 | 180 | 0.0 | 0.0 | 0.00 | 0.46 | 0.00 | 93 | 5002.8 |
| 20260506010651 | 10 | 202 | 0.0 | 0.0 | 0.00 | 0.46 | 0.00 | 93 | 5002.9 |
| 20260506010151 | 10 | 202 | 0.0 | 0.0 | 0.00 | 0.46 | 0.00 | 93 | 5003.1 |
| 20260506005651 | 10 | 180 | 0.0 | 0.0 | 0.00 | 0.46 | 0.00 | 93 | 5003.1 |